Middletown, OH

7:56 PM EST on December 10, 2016 (GMT -0500)
Hook Field Municipal

Weather History for KMWO - January, 2013

Change the Weather History Date:

Friday, January 18, 2013

  Actual Average (KFFO) Record (KFFO)
Temperature  
Mean Temperature 28 °F -  
Max Temperature 38 °F 32 °F 50 °F (1999)
Min Temperature 17 °F 16 °F -4 °F (2003)
Degree Days  
Heating Degree Days 38    
Moisture  
Dew Point 21 °F    
Average Humidity 73    
Maximum Humidity 100    
Minimum Humidity 45    
Precipitation  
Precipitation 0.00 in - - ()
Sea Level Pressure  
Sea Level Pressure 30.42 in    
Wind  
Wind Speed 6 mph (SSW)    
Max Wind Speed 16 mph    
Max Gust Speed 22 mph    
Visibility 10 miles    
Events      
Averages and records for this station are not official NWS values.
T = Trace of Precipitation, MM = Missing Value Source: NWS Daily Summary

Daily Weather History Graph

Daily Weather History Graph

Search for Another Location

Airport or City:

Trip Planner

Search our weather history database for the weather conditions in past years. The results will help you decide how hot, cold, wet, or windy it might be!

Date:

Astronomy

Jan. 18, 2013 Rise Set
Actual Time 7:54 AM EST 5:41 PM EST
Civil Twilight 7:25 AM EST 6:11 PM EST
Nautical Twilight 6:52 AM EST 6:43 PM EST
Astronomical Twilight 6:20 AM EST 7:16 PM EST
Moon 11:34 AM EST (1/18) 12:29 AM EST (1/18)
Length of Visible Light 10h 45m
Length of Day
9h 46m
Waxing Crescent, 47% of the Moon is Illuminated
Jan 18
Waxing Crescent
Jan 18
First Quarter
Jan 26
Full
Feb 3
Last Quarter
Feb 10
New

Hourly Weather History & Observations

Time (EST) Temp. Windchill Dew Point Humidity Pressure Visibility Wind Dir Wind Speed Gust Speed Precip Events Conditions
12:15 AM 27.9 °F 19.8 °F 21.7 °F 78% 30.42 in 10.0 mi NW 8.1 mph - N/A   Clear
12:35 AM 27.9 °F 19.8 °F 22.1 °F 79% 30.43 in 10.0 mi NNW 8.1 mph - N/A   Clear
12:55 AM 25.5 °F 17.8 °F 19.4 °F 78% 30.45 in 10.0 mi NNW 6.9 mph - N/A   Clear
1:15 AM 25.3 °F 19.7 °F 19.4 °F 78% 30.45 in 10.0 mi NNW 4.6 mph - N/A   Clear
1:35 AM 25.3 °F - 19.4 °F 78% 30.46 in 10.0 mi Calm Calm - N/A   Clear
1:55 AM 23.4 °F - 18.0 °F 80% 30.46 in 10.0 mi Calm Calm - N/A   Clear
2:15 AM 22.8 °F - 18.1 °F 82% 30.47 in 10.0 mi Calm Calm - N/A   Clear
2:35 AM 20.7 °F - 16.7 °F 85% 30.47 in 10.0 mi Calm Calm - N/A   Clear
2:55 AM 19.2 °F - 17.4 °F 93% 30.48 in 10.0 mi Calm Calm - N/A   Clear
3:15 AM 18.5 °F - 16.9 °F 93% 30.48 in 10.0 mi Calm Calm - N/A   Clear
3:35 AM 20.3 °F - 19.4 °F 96% 30.48 in 10.0 mi Calm Calm - N/A   Clear
3:55 AM 20.3 °F - 19.4 °F 96% 30.49 in 10.0 mi Calm Calm - N/A   Clear
4:15 AM 20.3 °F - 19.8 °F 98% 30.49 in 10.0 mi Calm Calm - N/A   Clear
4:35 AM 19.9 °F - 18.3 °F 93% 30.49 in 10.0 mi Calm Calm - N/A   Clear
4:55 AM 20.8 °F - 19.0 °F 93% 30.49 in 10.0 mi Calm Calm - N/A   Clear
5:15 AM 19.8 °F - 18.1 °F 93% 30.49 in 10.0 mi Calm Calm - N/A   Clear
5:35 AM 19.0 °F - 17.8 °F 95% 30.50 in 10.0 mi Calm Calm - N/A   Clear
5:55 AM 17.6 °F - 16.3 °F 95% 30.49 in 10.0 mi Calm Calm - N/A   Clear
6:15 AM 17.6 °F - 16.7 °F 96% 30.48 in 10.0 mi Calm Calm - N/A   Clear
6:35 AM 19.0 °F - 18.5 °F 98% 30.50 in 10.0 mi Calm Calm - N/A   Clear
6:55 AM 19.0 °F - 18.9 °F 99% 30.50 in 10.0 mi Calm Calm - N/A   Clear
7:15 AM 18.9 °F - 18.7 °F 99% 30.50 in 10.0 mi Calm Calm - N/A   Clear
7:35 AM 19.0 °F - 19.0 °F 100% 30.51 in 10.0 mi Calm Calm - N/A   Clear
7:55 AM 20.3 °F - 19.9 °F 99% 30.51 in 10.0 mi Calm Calm - N/A   Clear
8:15 AM 19.2 °F 14.1 °F 18.7 °F 98% 30.52 in 10.0 mi SW 3.5 mph - N/A   Clear
8:35 AM 20.3 °F - 19.4 °F 96% 30.52 in 10.0 mi Calm Calm - N/A   Clear
8:55 AM 22.6 °F - 21.6 °F 96% 30.51 in 10.0 mi Calm Calm - N/A   Clear
9:15 AM 25.3 °F 21.1 °F 22.8 °F 90% 30.52 in 10.0 mi South 3.5 mph - N/A   Clear
9:35 AM 25.3 °F 19.7 °F 21.9 °F 87% 30.53 in 10.0 mi SW 4.6 mph - N/A   Clear
9:55 AM 27.9 °F 21.5 °F 23.2 °F 83% 30.53 in 10.0 mi SSW 5.8 mph - N/A   Clear
10:15 AM 27.9 °F 20.6 °F 21.7 °F 78% 30.54 in 10.0 mi SSW 6.9 mph - N/A   Clear
10:35 AM 29.3 °F 23.2 °F 21.4 °F 72% 30.54 in 10.0 mi SW 5.8 mph - N/A   Clear
10:55 AM 30.2 °F 23.4 °F 21.0 °F 69% 30.54 in 10.0 mi SW 6.9 mph - N/A   Clear
11:15 AM 32.4 °F 26.0 °F 21.6 °F 64% 30.53 in 10.0 mi SW 6.9 mph - N/A   Clear
11:35 AM 32.5 °F 26.2 °F 19.9 °F 60% 30.53 in 10.0 mi SSW 6.9 mph - N/A   Clear
11:55 AM 32.5 °F 24.8 °F 19.0 °F 58% 30.51 in 10.0 mi SSW 9.2 mph - N/A   Clear
12:15 PM 32.5 °F 26.2 °F 18.0 °F 55% 30.50 in 10.0 mi SSW 6.9 mph - N/A   Clear
12:35 PM 33.1 °F 24.9 °F 19.0 °F 56% 30.48 in 10.0 mi South 10.4 mph - N/A   Clear
12:55 PM 35.1 °F 26.9 °F 19.0 °F 52% 30.46 in 10.0 mi SSW 11.5 mph - N/A   Clear
1:15 PM 35.1 °F 29.3 °F 19.6 °F 53% 30.45 in 10.0 mi South 6.9 mph 10.4 mph N/A   Clear
1:35 PM 36.1 °F 29.3 °F 18.1 °F 48% 30.43 in 10.0 mi SSW 9.2 mph 16.1 mph N/A   Clear
1:55 PM 37.6 °F 29.6 °F 19.0 °F 47% 30.43 in 10.0 mi SSW 12.7 mph - N/A   Clear
2:15 PM 37.6 °F 30.5 °F 19.6 °F 48% 30.42 in 10.0 mi SSW 10.4 mph 16.1 mph N/A   Clear
2:35 PM 37.6 °F 30.5 °F 20.1 °F 49% 30.42 in 10.0 mi SSW 10.4 mph - N/A   Clear
2:55 PM 38.3 °F 30.1 °F 20.1 °F 48% 30.41 in 10.0 mi South 13.8 mph - N/A   Clear
3:15 PM 38.5 °F 30.7 °F 19.6 °F 47% 30.40 in 10.0 mi SSW 12.7 mph 18.4 mph N/A   Clear
3:35 PM 38.8 °F 30.0 °F 18.9 °F 45% 30.38 in 10.0 mi South 16.1 mph 21.9 mph N/A   Clear
3:55 PM 38.8 °F 30.4 °F 18.9 °F 45% 30.37 in 10.0 mi South 15.0 mph 21.9 mph N/A   Clear
4:15 PM 38.8 °F 30.8 °F 19.6 °F 46% 30.37 in 10.0 mi South 13.8 mph 17.3 mph N/A   Clear
4:35 PM 38.8 °F 30.0 °F 19.9 °F 47% 30.36 in 10.0 mi South 16.1 mph - N/A   Clear
4:55 PM 38.8 °F 30.4 °F 21.0 °F 49% 30.35 in 10.0 mi South 15.0 mph 20.7 mph N/A   Clear
5:15 PM 38.1 °F 29.8 °F 21.2 °F 51% 30.34 in 10.0 mi SSW 13.8 mph - N/A   Clear
5:35 PM 37.6 °F 28.8 °F 22.1 °F 54% 30.33 in 10.0 mi South 15.0 mph - N/A   Clear
5:55 PM 37.6 °F 30.5 °F 23.5 °F 57% 30.33 in 10.0 mi South 10.4 mph - N/A   Clear
6:15 PM 37.4 °F 30.3 °F 24.8 °F 60% 30.33 in 10.0 mi South 10.4 mph - N/A   Clear
6:35 PM 36.5 °F 30.3 °F 24.6 °F 62% 30.33 in 10.0 mi South 8.1 mph - N/A   Clear
6:55 PM 35.6 °F 27.5 °F 23.4 °F 61% 30.33 in 10.0 mi SSW 11.5 mph - N/A   Clear
7:15 PM 35.1 °F 26.9 °F 23.5 °F 63% 30.33 in 10.0 mi SSW 11.5 mph - N/A   Clear
7:35 PM 35.1 °F 26.9 °F 24.3 °F 65% 30.33 in 10.0 mi SSW 11.5 mph 18.4 mph N/A   Clear
7:55 PM 35.1 °F 26.4 °F 24.8 °F 66% 30.32 in 10.0 mi SSW 12.7 mph - N/A   Clear
8:15 PM 35.1 °F 26.9 °F 25.3 °F 68% 30.31 in 10.0 mi SSW 11.5 mph - N/A   Clear
8:35 PM 35.1 °F 25.9 °F 25.7 °F 69% 30.30 in 10.0 mi SSW 13.8 mph 19.6 mph N/A   Clear
8:55 PM 35.1 °F 25.5 °F 25.7 °F 69% 30.30 in 10.0 mi SSW 15.0 mph - N/A   Clear
9:15 PM 35.1 °F 25.9 °F 25.7 °F 69% 30.29 in 10.0 mi SSW 13.8 mph - N/A   Clear
9:35 PM 35.1 °F 25.9 °F 26.2 °F 70% 30.28 in 10.0 mi SSW 13.8 mph - N/A   Clear
9:55 PM 35.1 °F 25.9 °F 26.4 °F 71% 30.27 in 10.0 mi SSW 13.8 mph 19.6 mph N/A   Clear
10:15 PM 35.1 °F 25.9 °F 26.4 °F 71% 30.26 in 10.0 mi SSW 13.8 mph - N/A   Clear
10:35 PM 35.1 °F 26.9 °F 26.6 °F 71% 30.25 in 10.0 mi SSW 11.5 mph - N/A   Clear
10:55 PM 35.1 °F 26.4 °F 27.1 °F 73% 30.25 in 10.0 mi SSW 12.7 mph - N/A   Clear
11:15 PM 35.1 °F 26.9 °F 27.1 °F 73% 30.24 in 10.0 mi SSW 11.5 mph - N/A   Clear
11:35 PM 35.1 °F 26.9 °F 27.1 °F 73% 30.23 in 10.0 mi SSW 11.5 mph - N/A   Clear
11:55 PM 35.1 °F 27.4 °F 27.0 °F 72% 30.23 in 10.0 mi SSW 10.4 mph - N/A   Clear